Location: ????
(32.1228°N, 34.8377°E)
Time: 17:31:49
(UTC+00:00)

Cosmos 2237 - Pass Details

Date: 21 September 2020
Orbit: 849 x 853 km, 70.8° (Epoch: 24 October)

Event Time Altitude Azimuth Distance (km) Brightness Sun altitude
Exits shadow 02:15:00 - 206° (SSW) 2,625 6.4 -16.3°
Reaches altitude 10° 02:15:24 10° 207° (SSW) 2,471 6.3 -16.2°
Maximum altitude 02:21:04 72° 291° (WNW) 895 4.1 -15.0°
Drops below altitude 10° 02:26:46 10° 16° (NNE) 2,481 7.0 -13.8°
Sets 02:29:14 0° 18° (NNE) 3,419 7.8 -13.3°
